Regional Weather Roundup
Issued by NWS Upton, NY

Current Version | Previous Version | Text Only | Print | Product List | Glossary On
Versions: 1 2 3 4 5 6 7 8 9 10 11 12 13 14 15 16 17 18 19 20 21 22 23 24 25 26 27 28 29 30 31 32 33 34 35 36 37 38 39 40 41 42 43 44 45 46 47 48 49 50
000 ASUS41 KOKX 212209 RWROKX Regional Weather Roundup National Weather Service New York NY 500 PM EST SUN JAN 21 2018 Note: "FAIR" indicates few or no clouds below 12,000 feet with no significant weather and/or obstructions to visibility. NYZ071-072-176-178-NJZ106-104-212300- New York City Metro Area CITY SKY/WX TMP DP RH WIND PRES REMARKS Central Park CLOUDY 50 30 46 CALM 30.16R Bronx Bot Gard N/A 46 30 53 CALM 30.14F Bronx Lehman C N/A 48 30 49 W2 N/A LaGuardia Arpt MOCLDY 49 29 46 CALM 30.14R Queens College N/A 50 32 50 S3 N/A Kennedy Intl MOCLDY 45 32 60 S5 30.16R Breezy Point N/A 43 N/A N/A SW7 N/A Brooklyn Coll N/A 50 34 53 S3 N/A Staten Island N/A 50 34 53 W6 N/A Newark/Liberty MOCLDY 50 33 52 SW12 30.15R Teterboro MOCLDY 49 30 48 E6 30.14R $$ NYZ177-179-078>081-212300- Long Island New York CITY SKY/WX TMP DP RH WIND PRES REMARKS Jones Beach N/A 43 N/A N/A SW2 N/A Wantagh N/A 45 32 61 S3 N/A Matinecock Pt N/A 46 N/A N/A SE1 N/A Farmingdale MOCLDY 45 30 55 S3 30.16R MacArthur/ISP MOCLDY 45 29 53 CALM 30.15S Shirley FAIR 41 30 65 SW5 30.17R Mt Sinai Harb N/A N/A N/A N/A W2 N/A Westhampton FAIR 37 27 67 CALM 30.18R East Hampton FAIR 40 29 64 CALM 30.15S Southold N/A 37 30 75 SW2 N/A Montauk N/A 40 29 64 CALM 30.17R $$ NYZ052-065-067-212300- Hudson Valley CITY SKY/WX TMP DP RH WIND PRES REMARKS White Plains FAIR 40 28 62 S3 30.13S Larchmont Harb N/A 39 N/A N/A N3 N/A Croton On Huds N/A 41 N/A N/A MISG N/A Somers N/A 43 30 61 SW2 N/A Brewster N/A 41 30 65 CALM N/A Newburgh PTCLDY 41 30 65 VRB5 30.14S Montgomery FAIR 40 30 67 SW6 30.12R Otisville N/A 43 32 65 S1 N/A Warwick N/A 41 32 70 SE2 N/A Suffern N/A 45 30 57 S1 N/A Poughkeepsie FAIR 43 28 55 E5 30.12F Albany CLOUDY 39 28 64 CALM 30.16R $$ NJZ001-105-106-008-010-013-015-019>022-104-212300- New Jersey CITY SKY/WX TMP DP RH WIND PRES REMARKS Newark/Liberty MOCLDY 50 33 52 SW12 30.15R Teterboro MOCLDY 49 30 48 E6 30.14R Caldwell CLOUDY 48 31 51 CALM 30.15R Somerville CLOUDY 47 35 63 CALM 30.14R Linden CLOUDY 50 33 51 CALM 30.16R Perth Amboy N/A 48 N/A N/A W8 N/A Sussex CLOUDY 43 32 65 CALM 30.13R Andover N/A 41 33 73 CALM 30.13R Trenton CLOUDY 50 37 61 CALM 30.16R Millville FAIR 47 37 68 CALM 30.18R Atlantic City FAIR 51 39 63 S6 30.17R Wrightstown CLOUDY 49 37 63 SW5 30.14R Toms River CLOUDY 49 37 63 CALM 30.17R Belmar CLOUDY 46 32 58 SE6 30.17R $$ PAZ047>061-062-071-212300- Eastern Pennsylvania CITY SKY/WX TMP DP RH WIND PRES REMARKS Philadelphia MOCLDY 51 37 58 SW6 30.17R Allentown CLOUDY 48 37 65 S3 30.14S Scranton CLOUDY 41 32 70 CALM 30.11S $$ CTZ002-004>006-009-010-012-RIZ004-006-007-MAZ004-011-015-212300- Southern New England In CT CITY SKY/WX TMP DP RH WIND PRES REMARKS Bradley Intl FAIR 44 29 55 CALM 30.13S Hartford FAIR 43 30 60 S3 30.14R Danbury FAIR 39 30 70 CALM 30.14R Wtrbury/Oxford FAIR 42 30 62 SW3 30.13S Norwalk Harbor N/A 37 N/A N/A NE1 N/A Bridgeport FAIR 37 28 70 W5 30.16R WCI 33 Meriden FAIR 41 29 62 SE5 30.14R New Haven FAIR 37 27 67 CALM 30.15S Chester FAIR 41 30 65 CALM 30.14S Groton FAIR 37 31 78 S5 30.15R WCI 33 Willimantic FAIR 44 30 57 CALM 30.14R In RI CITY SKY/WX TMP DP RH WIND PRES REMARKS Providence FAIR 42 31 64 S6 30.15R Block Island FAIR 40 31 70 SW9 30.16R WCI 34 Westerly FAIR 40 33 76 SW3 30.16R In MA CITY SKY/WX TMP DP RH WIND PRES REMARKS Boston MOCLDY 46 29 51 W5 30.14R Worcester FAIR 40 27 59 W3 30.12R Westfield FAIR 40 30 67 NW5 30.13R Provincetown FAIR 36 31 82 CALM 30.15R Nantucket FAIR 34 31 88 CALM 30.16R $$ ANZ330-335-338-340-345-350-353-355-212300- Coastal Marine Observations STATION/POSITION TIME SKY/WX TEMP WIND PRES VSBY WAVE AIR SEA DIR/SP/G HT/PER (UTC) (F) (DEG/KT/KT) (MB) (MI) (FT/S) NY Harb Entrance 2050 44 41 130/ 2/ 4 1021.1 2/ 7 20 S Fire Island 2050 43 42 CALM / 2 1021.5 2/ 7 15 E Barnegat Li 2130 43 N/A 2/ 7 Hudson Canyon 2050 47 49 290/ 6/ 8 1021.2 3/ 8 Kings Point 2148 47 33 140/ 3/ 4 1021.7 Execution Rocks NOT AVBL Western LI Sound NOT AVBL Central LI Sound NOT AVBL Robbins Reef 2148 49 190/ 5/ 6 1021.4 $$ >>>>>>>>>>>>>>>>>>>>>>>>>>>> KEY <<<<<<<<<<<<<<<<<<<<<<<<<<< > < > SKY/WX - Sky Condition/Present Weather < > TMP - Temperature in Fahrenheit < > DP - Dew Point in Fahrenheit < > RH - Relative Humidity in Percent < > WIND - Direction (from) and Speed in MPH < > PRES - Mean Sea Level Pressure (inches of Hg) < > WCI - Wind Chill Index < > VSB - Visibility in Miles < > HX - Heat Index < > TC - Temperature in Celsius < > VRB - Varibale Wind Direction < > < >>>>>>>>>>>>>>>>>>>>>>>>>>>> KEY <<<<<<<<<<<<<<<<<<<<<<<<<<<

USA.gov is the U.S. government's official web portal to all federal, state and local government web resources and services.